• MPC Preparation (Info)

  • MPEC 2023-B25 : 2023 AE2

    The following Minor Planet Electronic Circular may be linked-to from your own Web pages, but must not otherwise be redistributed electronically.

    A form allowing access to any MPEC is at the bottom of this page.


    Read MPEC 2023-B24 Read MPEC 2023-B26


    M.P.E.C. 2023-B25                              Issued 2023 January 19, 13:31 UT
    
         The Minor Planet Electronic Circulars contain information on unusual
             minor planets, routine data on comets and natural satellites,
             and occasional editorial announcements.  They are published
        on behalf of Division F of the International Astronomical Union by the
              Minor Planet Center, Smithsonian Astrophysical Observatory,
                              Cambridge, MA 02138, U.S.A.
    			  
                 Prepared using the Tamkin Foundation Computer Network
    
                                  MPC@CFA.HARVARD.EDU
                URL https://www.minorplanetcenter.net/    ISSN 1523-6714
    
                                    2023 AE2                                 
    
    
    Observations:
         K23A02E* C2023 01 13.35286507 32 10.352+19 47 08.22         21.77wUEB025F52
         K23A02E  C2023 01 13.36444707 32 06.207+19 47 37.69         22.02wUEB025F52
         K23A02E  C2023 01 13.38769607 31 57.693+19 48 38.11         21.88wUEB025F52
         K23A02E  C2023 01 13.61359707 30 34.885+19 58 08.52         21.71GVEB025F52
         K23A02E  C2023 01 13.61422707 30 34.655+19 58 10.70         21.57GVEB025F52
         K23A02E  C2023 01 15.39748307 19 16.473+21 19 53.16         21.48GVEB025F52
         K23A02E  C2023 01 15.39828707 19 16.115+21 19 55.92         21.55GVEB025F52
         K23A02E 1C2023 01 15.94724 07 15 22.10 +21 46 28.4          21.1 VXEB025033
         K23A02E 1C2023 01 15.96112 07 15 15.79 +21 47 10.0          21.5 VXEB025033
         K23A02E 1C2023 01 18.94411 06 50 12.51 +24 29 28.7          21.5 VXEB025033
         K23A02E 1C2023 01 18.94590 06 50 11.41 +24 29 34.7          21.7 VXEB025033
         K23A02E 1C2023 01 18.94769 06 50 10.33 +24 29 40.9          21.2 VXEB025033
    
    Observer details:
    033 Karl Schwarzschild Observatory, Tautenburg.  Observers S. Melnikov, C.
        Hoegner, F. Ludwig, B. Stecklum.  Measurer B. Stecklum.  1.34-m f/3
        Schmidt + CCD.
    F52 Pan-STARRS 2, Haleakala.  Observers J. Bulger, T. Lowe, A. Schultz, I.
        Smith, K. Chambers, T. Dukes.  Measurers K. Chambers, S. Chastel, T. de
        Boer, J. Fairlamb, H. Gao, M. Huber, C.-C. Lin, E. Magnier, Y.
        Ramanjooloo, R. Wainscoat, R. Weryk.  1.8-m Ritchey-Chretien + CCD.
    
    Orbital elements:
    2023 AE2                                                 Earth MOID = 0.0302 AU
    Epoch 2023 Feb. 25.0 TT = JDT 2460000.5                 Veres                   
    M 323.03554              (2000.0)            P               Q                  
    n   0.92526869     Peri.  126.98707     -0.46821573     +0.87637229             
    a   1.0430156      Node   114.72896     -0.84505899     -0.40678629             
    e   0.4763804      Incl.    7.14003     -0.25816531     -0.25786921             
    P   1.07           H   25.00          G   0.15           U   8                  
    Residuals in seconds of arc
    230113 F52  0.4-  0.2+    230113 F52  0.0   0.1+    230115 033  0.5-  0.1+
    230113 F52  0.4+  0.3-    230115 F52  0.1+  0.2-    230118 033  0.3+  0.0
    230113 F52  0.2-  0.1+    230115 F52  0.0   0.3+    230118 033  0.2-  0.3-
    230113 F52  0.1+  0.5-    230115 033  0.2-  0.2+    230118 033  0.3-  0.4-
    
    Ephemeris:
    2023 AE2                 a,e,i = 1.04, 0.48, 7                   q = 0.5461
    Date    TT    R. A. (2000) Decl.     Delta      r    Elong.  Phase     V
    2022 12 20    08 28 02.5 +12 01 38   0.3867  1.3069   140.9    28.4    24.8
    ...
    2023 01 04    08 08 30.1 +14 59 24   0.2451  1.2180   161.3    15.0    23.2
    ...
    2023 01 12    07 39 26.6 +18 52 27   0.1812  1.1644   176.6     2.9    21.9
    ...
    2023 01 18    06 58 55.2 +23 35 50   0.1412  1.1214   166.2    12.1    21.7
    2023 01 19    06 49 40.9 +24 33 11   0.1354  1.1140   162.9    15.0    21.7
    2023 01 20    06 39 32.1 +25 32 59   0.1299  1.1065   159.5    18.2    21.7
    ...
    2023 01 26    05 15 22.3 +31 38 54   0.1047  1.0604   134.3    41.6    21.9
    ...
    2023 02 03    02 33 21.1 +33 01 27   0.09861 0.9953    92.9    81.5    22.8
    ...
    2023 02 18    23 30 15.0 +17 25 13   0.1604  0.8642    36.3   137.4    27.2
    
    M. P. C. Staff               (C) Copyright 2023 MPC           M.P.E.C. 2023-B25
    


    Read MPEC 2023-B24 Read MPEC 2023-B26


    MPEC number:

    Enter an MPEC number in one of the following forms:

    • 1997-B01 (the full form)
    • J97B01 (the packed version of the full form)
    • B01 (the abbreviated form)